Weather History for Lawrenceville, IL

Change the Weather History Date:

Saturday, March 30, 2013

  Actual Average Record
Temperature  
Mean Temperature 46 °F 50 °F  
Max Temperature 60 °F 61 °F 84 °F (2012)
Min Temperature 32 °F 39 °F 26 °F (1991)
Degree Days  
Heating Degree Days 19 15  
Month to date heating degree days 809 605  
Since 1 July heating degree days 4505 4280  
Cooling Degree Days 0 0  
Month to date cooling degree days 0 0  
Year to date cooling degree days 0 0  
Moisture  
Dew Point 40 °F    
Average Humidity 70    
Maximum Humidity 100    
Minimum Humidity 40    
Precipitation  
Precipitation 0.08 in 0.15 in 3.86 in (1989)
Month to date precipitation 3.25 3.27  
Year to date precipitation 11.81 7.66  
Sea Level Pressure  
Sea Level Pressure 30.14 in    
Wind  
Wind Speed 6 mph (SSE)    
Max Wind Speed 18 mph    
Max Gust Speed 22 mph    
Visibility 3 miles    
Events Fog , Rain    
T = Trace of Precipitation, MM = Missing Value Source: NWS Daily Summary

Daily Weather History Graph

Daily Weather History Graph

Search for Another Location

Airport:

Trip Planner

Search our weather history database for the weather conditions in past years. The results will help you decide how hot, cold, wet, or windy it might be!

Date:

Astronomy

Mar. 30, 2013 Rise Set
Actual Time 6:37 AM CDT 7:12 PM CDT
Civil Twilight 6:11 AM CDT 7:39 PM CDT
Nautical Twilight 5:39 AM CDT 8:10 PM CDT
Astronomical Twilight 5:07 AM CDT 8:43 PM CDT
Moon 11:15 PM CDT (3/30) 8:35 AM CDT (3/30)
Length of Visible Light 13h 27m
Length of Day
12h 34m
Waning Gibbous, 86% of the Moon is Illuminated
Mar 30
Waning Gibbous
Apr 2
Last Quarter
Apr 10
New
Apr 18
First Quarter
Apr 25
Full

Hourly Weather History & Observations

Time (CDT) Temp. Windchill Dew Point Humidity Pressure Visibility Wind Dir Wind Speed Gust Speed Precip Events Conditions
12:15 AM 37.4 °F - 35.6 °F 93% 30.23 in 2.0 mi Calm Calm - N/A   Clear
12:23 AM 33.8 °F 30.8 °F 33.8 °F 100% 30.23 in 1.0 mi SSE 3.5 mph - N/A   Clear
12:30 AM 35.6 °F - 33.8 °F 93% 30.23 in 0.8 mi Calm Calm - N/A   Clear
12:53 AM 39.0 °F - 37.9 °F 96% 30.24 in 1.2 mi Calm Calm - N/A   Partly Cloudy
1:01 AM 39.2 °F - 39.2 °F 100% 30.23 in 2.0 mi Calm Calm - N/A   Partly Cloudy
1:15 AM 37.4 °F - 37.4 °F 100% 30.23 in 0.8 mi Calm Calm - N/A   Clear
1:27 AM 37.4 °F 34.9 °F 37.4 °F 100% 30.23 in 0.2 mi SW 3.5 mph - N/A Fog Fog
1:46 AM 37.4 °F 34.9 °F 37.4 °F 100% 30.23 in 0.2 mi West 3.5 mph - N/A Fog Fog
1:53 AM 37.0 °F 34.5 °F 37.0 °F 100% 30.23 in 0.2 mi West 3.5 mph - N/A Fog Fog
2:53 AM 34.0 °F 31.0 °F 34.0 °F 100% 30.23 in 0.2 mi ESE 3.5 mph - N/A Fog Fog
3:53 AM 34.0 °F - 34.0 °F 100% 30.22 in 0.2 mi Calm Calm - N/A Fog Fog
4:53 AM 34.0 °F - 34.0 °F 100% 30.23 in 0.2 mi Calm Calm - N/A Fog Fog
5:53 AM 32.0 °F - 32.0 °F 100% 30.23 in 0.2 mi Calm Calm - N/A Fog Fog
6:53 AM 35.1 °F 31.0 °F 35.1 °F 100% 30.23 in 0.2 mi ESE 4.6 mph - N/A Fog Fog
7:53 AM 37.0 °F - 37.0 °F 100% 30.22 in 0.2 mi Calm Calm - N/A Fog Fog
8:53 AM 41.0 °F 38.0 °F 41.0 °F 100% 30.22 in 0.2 mi SSE 4.6 mph - N/A Fog Fog
9:53 AM 43.0 °F 40.3 °F 43.0 °F 100% 30.20 in 0.2 mi ESE 4.6 mph - N/A Fog Fog
10:30 AM 44.6 °F 40.2 °F 44.6 °F 100% 30.18 in 1.8 mi ESE 8.1 mph - N/A   Overcast
10:39 AM 44.6 °F 41.4 °F 44.6 °F 100% 30.18 in 2.5 mi ESE 5.8 mph - N/A   Overcast
10:53 AM 46.0 °F 43.1 °F 46.0 °F 100% 30.19 in 3.0 mi SE 5.8 mph - N/A   Overcast
11:07 AM 46.4 °F 45.2 °F 46.4 °F 100% 30.18 in 3.0 mi SSE 3.5 mph - N/A   Overcast
11:53 AM 51.1 °F - 46.9 °F 86% 30.17 in 5.0 mi SSE 11.5 mph - N/A   Mostly Cloudy
12:09 PM 51.8 °F - 46.4 °F 82% 30.15 in 5.0 mi South 8.1 mph - N/A   Haze
12:53 PM 53.1 °F - 44.1 °F 71% 30.14 in 6.0 mi South 9.2 mph - N/A   Haze
1:53 PM 55.9 °F - 42.1 °F 60% 30.11 in 8.0 mi South 8.1 mph - N/A   Clear
2:53 PM 60.1 °F - 39.0 °F 46% 30.06 in 9.0 mi SSE 12.7 mph - N/A   Clear
3:53 PM 59.0 °F - 36.0 °F 42% 30.03 in 9.0 mi SE 10.4 mph - N/A   Clear
4:53 PM 57.9 °F - 36.0 °F 44% 30.01 in 10.0 mi South 10.4 mph - N/A   Clear
5:53 PM 55.9 °F - 39.0 °F 53% 30.00 in 9.0 mi South 6.9 mph - N/A   Clear
6:53 PM 55.0 °F - 39.9 °F 57% 29.99 in 9.0 mi South 10.4 mph - N/A   Clear
7:53 PM 53.1 °F - 42.1 °F 66% 29.97 in 9.0 mi SSW 10.4 mph - N/A   Overcast
8:53 PM 52.0 °F - 43.0 °F 71% 29.97 in 8.0 mi SSW 10.4 mph - N/A   Overcast
9:53 PM 50.0 °F - 46.0 °F 86% 29.96 in 5.0 mi SW 8.1 mph - 0.01 in Rain Light Rain
10:53 PM 48.9 °F - 46.9 °F 93% 29.95 in 4.0 mi Calm Calm - 0.05 in Rain Light Rain
11:53 PM 48.0 °F - 46.9 °F 96% 29.93 in 4.0 mi Calm Calm - 0.02 in Rain Light Rain